Denver, CO

6:34 AM MDT on May 27, 2017 (GMT -0600)
Denver International

Weather History for KDEN - March, 2012

Change the Weather History Date:

Thursday, March 8, 2012

  Actual Average Record
Temperature  
Mean Temperature 33 °F 38 °F  
Max Temperature 47 °F 52 °F 74 °F (1989)
Min Temperature 19 °F 24 °F -2 °F (1969)
Degree Days  
Heating Degree Days 32 27  
Month to date heating degree days 208 223  
Since 1 July heating degree days 4588 4662  
Cooling Degree Days 0 0  
Month to date cooling degree days 0 0  
Year to date cooling degree days 0 0  
Moisture  
Dew Point 11 °F    
Average Humidity 48    
Maximum Humidity 81    
Minimum Humidity 15    
Precipitation  
Precipitation 0.00 in 0.02 in 0.51 in (1992)
Month to date precipitation 0.03 0.16  
Year to date precipitation 1.19 0.94  
Snow  
Snow 0.00 in - - ()
Month to date snowfall T  
Since 1 July snowfall 54.6  
Snow Depth 0.00 in    
Sea Level Pressure  
Sea Level Pressure 30.45 in    
Wind  
Wind Speed 6 mph (NNE)    
Max Wind Speed 14 mph    
Max Gust Speed 16 mph    
Visibility 10 miles    
Events      
T = Trace of Precipitation, MM = Missing Value Source: NWS Daily Summary

Daily Weather History Graph

Daily Weather History Graph

Search for Another Location

Airport or City:

Trip Planner

Search our weather history database for the weather conditions in past years. The results will help you decide how hot, cold, wet, or windy it might be!

Date:

Astronomy

Mar. 08, 2012 Rise Set
Actual Time 6:20 AM MST 5:58 PM MST
Civil Twilight 5:53 AM MST 6:25 PM MST
Nautical Twilight 5:22 AM MST 6:57 PM MST
Astronomical Twilight 4:50 AM MST 7:28 PM MST
Moon 6:49 PM MST (3/8) 6:05 AM MST (3/8)
Length of Visible Light 12h 32m
Length of Day
11h 38m
Full, 100% of the Moon is Illuminated
Mar 8
Full
Mar 14
Last Quarter
Mar 22
New
Mar 30
First Quarter
Apr 6
Full

Hourly Weather History & Observations

Time (MST) Temp. Windchill Dew Point Humidity Pressure Visibility Wind Dir Wind Speed Gust Speed Precip Events Conditions
12:24 AM 26.6 °F 19.1 °F 19.4 °F 74% 30.23 in 10.0 mi North 6.9 mph - N/A   Overcast
12:53 AM 27.0 °F 18.7 °F 18.0 °F 69% 30.32 in 10.0 mi North 8.1 mph - N/A   Overcast
1:53 AM 26.1 °F 19.4 °F 17.1 °F 69% 30.36 in 10.0 mi North 5.8 mph - N/A   Overcast
2:53 AM 24.1 °F 12.5 °F 16.0 °F 71% 30.38 in 10.0 mi North 12.7 mph - N/A   Overcast
3:53 AM 21.9 °F 15.7 °F 14.0 °F 72% 30.42 in 10.0 mi North 4.6 mph - N/A   Scattered Clouds
4:53 AM 21.9 °F - 12.9 °F 68% 30.46 in 10.0 mi Calm Calm - N/A   Scattered Clouds
5:53 AM 19.0 °F 10.0 °F 12.9 °F 77% 30.48 in 10.0 mi SW 6.9 mph - N/A   Scattered Clouds
6:53 AM 21.9 °F 17.2 °F 12.9 °F 68% 30.48 in 10.0 mi SW 3.5 mph - N/A   Partly Cloudy
7:53 AM 28.4 °F - 10.4 °F 47% 30.41 in 10.0 mi Calm Calm - N/A   Partly Cloudy
8:53 AM 33.1 °F 28.7 °F 14.0 °F 46% 30.50 in 10.0 mi NNW 4.6 mph - N/A   Partly Cloudy
9:53 AM 33.1 °F - 12.9 °F 43% 30.51 in 10.0 mi Calm Calm - N/A   Partly Cloudy
10:53 AM 37.0 °F 32.4 °F 12.9 °F 37% 30.50 in 10.0 mi West 5.8 mph - N/A   Partly Cloudy
11:53 AM 39.0 °F 34.0 °F 10.9 °F 32% 30.48 in 10.0 mi Variable 6.9 mph - N/A   Partly Cloudy
12:53 PM 41.0 °F 38.0 °F 6.1 °F 24% 30.45 in 10.0 mi Variable 4.6 mph - N/A   Partly Cloudy
1:53 PM 43.0 °F 39.5 °F 1.9 °F 18% 30.43 in 10.0 mi NNW 5.8 mph - N/A   Clear
2:53 PM 45.0 °F 43.5 °F 1.9 °F 17% 30.42 in 10.0 mi North 3.5 mph - N/A   Clear
3:53 PM 46.0 °F 43.9 °F 1.9 °F 16% 30.43 in 10.0 mi NE 4.6 mph - N/A   Clear
4:53 PM 44.1 °F 42.5 °F 1.9 °F 17% 30.44 in 10.0 mi ESE 3.5 mph - N/A   Clear
5:53 PM 39.0 °F 35.7 °F 7.0 °F 27% 30.49 in 10.0 mi ESE 4.6 mph - N/A   Clear
6:53 PM 36.0 °F 31.1 °F 9.0 °F 33% 30.51 in 10.0 mi SE 5.8 mph - N/A   Clear
7:53 PM 30.0 °F 21.7 °F 10.0 °F 43% 30.53 in 10.0 mi SSE 9.2 mph - N/A   Clear
8:53 PM 28.0 °F 18.6 °F 12.0 °F 51% 30.53 in 10.0 mi SSE 10.4 mph - N/A   Clear
9:53 PM 30.0 °F 20.5 °F 12.0 °F 47% 30.54 in 10.0 mi South 11.5 mph - N/A   Clear
10:53 PM 30.9 °F 22.2 °F 12.9 °F 47% 30.51 in 10.0 mi SSW 10.4 mph - N/A   Clear
11:53 PM 32.0 °F 23.0 °F 10.9 °F 42% 30.48 in 10.0 mi SSW 11.5 mph - N/A   Clear